[[{"header":{"parameterUnit":"m.s-1","parameterCategory":1,"la1":30.2991,"la2":30.254,"lo1":-89.0895,"lo2":-89.0444,"dy":0.0017,"dx":0.0017,"nx":28,"ny":28,"refTime":"2024-12-04T03:00:00:Z","depth":0,"parameterNumber":2,"parameterNumberName":"U-component_of_WINDS"},"data":[0,0,0,0,0,0,0,0,0,0,0,0,0,0,0,0,0,0,0,0,0,0,0,0,0,0,0,0,0,0,0,0,0,0,0,0,0,0,0,0,0,0,0,0,0,0,0,0,0,0,0,0,0,0,0,0,0,0,-0.8411,-0.8411,0,-0.8438,-0.8438,-0.8438,-0.8413,-0.8412,-0.8411,-0.841,-0.8439,-0.844,-0.8442,0,0,0,0,0,0,0,0,0,0,0,0,0,-0.8337,-0.8338,-0.841,-0.8411,-0.8411,-0.8438,-0.8438,-0.8438,-0.8413,-0.8412,-0.8411,-0.841,-0.8438,-0.844,-0.8442,0,0,0,0,0,0,0,0,0,0,0,0,0,-0.8367,-0.8339,-0.841,-0.8402,-0.8401,-0.8438,-0.8438,-0.8438,-0.8413,-0.8412,-0.841,-0.8409,-0.8437,-0.844,-0.8442,-0.8489,0,0,-0.845,-0.8451,0,0,0,0,0,0,0,0,-0.8365,-0.837,-0.8403,-0.8402,-0.8402,-0.842,-0.8422,-0.8455,-0.8414,-0.8409,-0.841,-0.8408,-0.8434,-0.8437,-0.8445,-0.849,-0.8492,-0.8451,-0.8452,-0.8453,-0.8454,0,0,0,0,0,0,0,-0.8363,-0.8368,-0.8421,-0.8403,-0.8403,-0.8396,-0.8399,-0.8429,-0.843,-0.8409,-0.8407,-0.8411,-0.8433,-0.8443,-0.8446,-0.8492,-0.8451,-0.8453,-0.8454,-0.8455,-0.8576,-0.8577,0,0,0,0,0,0,-0.8362,-0.8367,-0.842,-0.8422,-0.8379,-0.8399,-0.8402,-0.8416,-0.8429,-0.843,-0.8412,-0.841,-0.8439,-0.8443,-0.8447,-0.8502,-0.8453,-0.8456,-0.8457,-0.8574,-0.8576,-0.8578,0,0,0,0,0,0,-0.836,-0.8367,-0.8419,-0.8394,-0.84,-0.8402,-0.8418,-0.8417,-0.8427,-0.8431,-0.8432,-0.8422,-0.8438,-0.8443,-0.8478,-0.8502,-0.8457,-0.8459,-0.8572,-0.8575,-0.8577,-0.8613,0,0,0,0,0,0,-0.8358,-0.8366,-0.8384,-0.8394,-0.8401,-0.8451,-0.8419,-0.8419,-0.8431,-0.8428,-0.844,-0.8441,-0.8437,-0.8475,-0.8481,-0.8505,-0.8461,-0.857,-0.8573,-0.8576,-0.8609,-0.8616,-0.8622,0,0,0,0,0,-0.8356,-0.8394,-0.8385,-0.8392,-0.8424,-0.8452,-0.8456,-0.8451,-0.8433,-0.8451,-0.8454,-0.8441,-0.8498,-0.8479,-0.8485,-0.8511,-0.8569,-0.8572,-0.8576,-0.8607,-0.8615,-0.8622,0,0,0,0,0,0,-0.8387,-0.8395,-0.8386,-0.8428,-0.844,-0.8448,-0.8471,-0.846,-0.8477,-0.8474,-0.8466,-0.8469,-0.8507,-0.8512,-0.849,-0.8556,-0.8531,-0.8536,-0.8551,-0.8559,-0.8565,-0.8564,-0.8463,0,0,0,0,0,-0.8399,-0.8421,-0.8427,-0.8464,-0.847,-0.8469,-0.8481,-0.8476,-0.8488,-0.8493,-0.8498,-0.8511,-0.8531,-0.8545,-0.8565,-0.8609,-0.8612,-0.863,-0.8636,-0.8641,-0.8646,-0.867,-0.8678,-0.859,-0.859,-0.859,0,0,-0.8424,-0.8431,-0.8445,-0.847,-0.8478,-0.8502,-0.8474,-0.85,-0.8517,-0.8497,-0.8531,-0.8535,-0.8548,-0.8588,-0.8606,-0.8594,-0.8671,-0.8646,-0.865,-0.8652,-0.8675,-0.8683,-0.869,-0.8593,-0.8592,-0.8592,0,0,-0.8481,-0.8488,-0.852,-0.8528,-0.8541,-0.854,-0.8547,-0.8557,-0.8559,-0.8592,-0.8578,-0.8598,-0.8634,-0.8644,-0.8653,-0.8712,-0.8701,-0.8719,-0.8752,-0.8775,-0.8782,-0.8788,-0.8809,-0.8817,-0.8723,-0.8723,-0.8724,0,-0.851,-0.8545,-0.8537,-0.8564,-0.8575,-0.8557,-0.8589,-0.8597,-0.8616,-0.8624,-0.8609,-0.8654,-0.8661,-0.8703,-0.8717,-0.8725,-0.8734,-0.8718,-0.8781,-0.8787,-0.8793,-0.8813,-0.8821,-0.8726,-0.8725,-0.8725,-0.8725,0,-0.858,-0.8604,-0.8628,-0.8646,-0.8659,-0.8689,-0.8685,-0.87,-0.8693,-0.8693,-0.8727,-0.8735,-0.8756,-0.8765,-0.8759,-0.8806,-0.8798,-0.8782,-0.8757,-0.8804,-0.8822,-0.883,-0.8729,-0.8728,-0.8727,-0.8727,0,0,-0.866,-0.8672,-0.8681,-0.8688,-0.87,-0.8719,-0.8746,-0.8766,-0.8779,-0.8791,-0.8815,-0.8845,-0.883,-0.8841,-0.8835,-0.8855,-0.8902,-0.8837,-0.8838,-0.885,-0.8954,-0.8966,-0.8976,-0.8893,-0.8895,-0.8896,-0.8953,0,-0.8718,-0.8767,-0.876,-0.8806,-0.8828,-0.881,-0.8834,-0.8844,-0.8845,-0.8863,-0.8864,-0.8886,-0.8865,-0.8871,-0.889,-0.8892,-0.8923,-0.8888,-0.8915,-0.8916,-0.8914,-0.8985,-0.8999,-0.9053,-0.8961,-0.8962,-0.8963,0,-0.8793,-0.8808,-0.8857,-0.8864,-0.8873,-0.8895,-0.8912,-0.893,-0.894,-0.8939,-0.895,-0.894,-0.8968,-0.8941,-0.8978,-0.8955,-0.8965,-0.8968,-0.897,-0.8973,-0.8943,-0.8992,-0.907,-0.9078,-0.8974,-0.8973,-0.8972,0,-0.8847,-0.8879,-0.8912,-0.8919,-0.8928,-0.8944,-0.8949,-0.8957,-0.8969,-0.8984,-0.8991,-0.9009,-0.9019,-0.9032,-0.9027,-0.9008,-0.9066,-0.9039,-0.9066,-0.9066,-0.9081,-0.908,-0.9163,-0.9086,-0.9086,-0.9085,-0.9085,0,-0.8913,-0.8944,-0.8936,-0.8957,-0.8991,-0.8982,-0.9015,-0.9017,-0.9025,-0.9045,-0.903,-0.905,-0.9042,-0.9061,-0.9057,-0.9089,-0.9093,-0.9093,-0.9092,-0.9095,-0.9095,-0.9103,-0.9099,-0.9088,-0.9087,-0.9087,-0.9086,0,-0.898,-0.8976,-0.9011,-0.9017,-0.9019,-0.9043,-0.9048,-0.9067,-0.9065,-0.9092,-0.9097,-0.9095,-0.9117,-0.9113,-0.9136,-0.9133,-0.9173,-0.9167,-0.917,-0.9169,-0.9197,-0.9195,-0.9288,-0.93,-0.9215,-0.9216,-0.9216,0,-0.9023,-0.9046,-0.9054,-0.9066,-0.9072,-0.9092,-0.9104,-0.9095,-0.9108,-0.9121,-0.9138,-0.9158,-0.9173,-0.9208,-0.9209,-0.9227,-0.9221,-0.9253,-0.9224,-0.9226,-0.9223,-0.9222,-0.9224,-0.9259,-0.926,-0.9261,-0.9261,0,-0.9101,-0.9097,-0.9114,-0.9131,-0.9145,-0.9158,-0.9169,-0.918,-0.9172,-0.9187,-0.9208,-0.922,-0.9243,-0.9263,-0.9279,-0.9284,-0.9272,-0.927,-0.9278,-0.9282,-0.9283,-0.9283,-0.9187,-0.9268,-0.9268,-0.9267,-0.9267,-0.9267,-0.9157,-0.9177,-0.9185,-0.9204,-0.9212,-0.9222,-0.924,-0.924,-0.9258,-0.9276,-0.927,-0.9294,-0.9302,-0.9323,-0.9329,-0.9348,-0.9336,-0.9347,-0.935,-0.9353,-0.9356,-0.9279,-0.935,-0.935,-0.935,-0.935,-0.935,0,-0.9235,-0.9238,-0.9256,-0.9272,-0.9287,-0.9273,-0.9284,-0.9298,-0.9319,-0.9328,-0.9343,-0.9367,-0.9386,-0.9387,-0.9405,-0.9419,-0.9414,-0.9424,-0.9424,-0.9425,-0.9366,-0.9358,-0.9428,-0.9428,-0.9428,-0.9428,-0.9428,-0.9428,-0.9277,-0.9309,-0.9306,-0.9341,-0.9344,-0.9368,-0.9375,-0.9385,-0.9392,-0.9419,-0.9434,-0.9435,-0.944,-0.9458,-0.9474,-0.9474,-0.9482,-0.9494,-0.9492,-0.9437,-0.9429,-0.9422,-0.9414,-0.9496,-0.9496,-0.955,-0.9551,-0.9551]},{"header":{"parameterUnit":"m.s-1","parameterCategory":1,"la1":30.2991,"la2":30.254,"lo1":-89.0895,"lo2":-89.0444,"dy":0.0017,"dx":0.0017,"nx":28,"ny":28,"refTime":"2024-12-04T03:00:00:Z","depth":0,"parameterNumber":3,"parameterNumberName":"V-component_of_WINDS"},"data":[0,0,0,0,0,0,0,0,0,0,0,0,0,0,0,0,0,0,0,0,0,0,0,0,0,0,0,0,0,0,0,0,0,0,0,0,0,0,0,0,0,0,0,0,0,0,0,0,0,0,0,0,0,0,0,0,0,0,-7.5162,-7.5163,0,-7.5279,-7.528,-7.5282,-7.5202,-7.5198,-7.5195,-7.5191,-7.5303,-7.531,-7.5316,0,0,0,0,0,0,0,0,0,0,0,0,0,-7.4862,-7.4868,-7.5162,-7.5163,-7.5165,-7.5279,-7.528,-7.5282,-7.5203,-7.5198,-7.5194,-7.519,-7.5301,-7.5309,-7.5316,0,0,0,0,0,0,0,0,0,0,0,0,0,-7.4987,-7.487,-7.5162,-7.5139,-7.5138,-7.5279,-7.528,-7.5282,-7.5204,-7.5198,-7.5193,-7.5188,-7.5299,-7.5308,-7.5317,-7.5484,0,0,-7.5346,-7.5351,0,0,0,0,0,0,0,0,-7.498,-7.4998,-7.5141,-7.5141,-7.514,-7.5221,-7.5216,-7.535,-7.5205,-7.5179,-7.5191,-7.5185,-7.528,-7.529,-7.5324,-7.5489,-7.5494,-7.5347,-7.5353,-7.5357,-7.536,0,0,0,0,0,0,0,-7.4971,-7.4992,-7.5208,-7.5143,-7.5143,-7.5121,-7.5132,-7.5241,-7.5258,-7.518,-7.5175,-7.519,-7.5278,-7.5315,-7.5326,-7.5495,-7.5347,-7.5356,-7.5361,-7.5365,-7.5802,-7.5808,0,0,0,0,0,0,-7.4966,-7.4986,-7.5204,-7.5211,-7.5045,-7.513,-7.5144,-7.52,-7.5256,-7.526,-7.5195,-7.5186,-7.5301,-7.5315,-7.533,-7.5528,-7.5357,-7.5366,-7.5371,-7.5796,-7.5803,-7.581,0,0,0,0,0,0,-7.4959,-7.4986,-7.5199,-7.5097,-7.5123,-7.5141,-7.5205,-7.5205,-7.5242,-7.5267,-7.5269,-7.523,-7.5298,-7.5316,-7.5447,-7.5531,-7.537,-7.5379,-7.5789,-7.5798,-7.5807,-7.5926,0,0,0,0,0,0,-7.4951,-7.4984,-7.5049,-7.5099,-7.5129,-7.5317,-7.5211,-7.5211,-7.5259,-7.5249,-7.53,-7.5304,-7.5295,-7.5433,-7.5456,-7.5541,-7.5386,-7.5782,-7.5793,-7.5804,-7.5914,-7.5938,-7.5958,0,0,0,0,0,-7.4941,-7.5076,-7.5053,-7.508,-7.5211,-7.5322,-7.5338,-7.5328,-7.5267,-7.5331,-7.5347,-7.5302,-7.5518,-7.5447,-7.5472,-7.5561,-7.5776,-7.579,-7.5803,-7.5905,-7.5933,-7.5957,0,0,0,0,0,0,-7.5033,-7.5083,-7.5057,-7.5214,-7.5265,-7.5309,-7.5389,-7.5358,-7.5426,-7.5413,-7.5395,-7.5407,-7.5543,-7.5565,-7.5485,-7.5725,-7.5637,-7.5656,-7.5706,-7.5733,-7.5754,-7.5745,-7.5394,0,0,0,0,0,-7.5072,-7.5161,-7.5198,-7.5333,-7.536,-7.5371,-7.5419,-7.5407,-7.5457,-7.5478,-7.5503,-7.5552,-7.5631,-7.5683,-7.5757,-7.5917,-7.5926,-7.5991,-7.6012,-7.603,-7.6046,-7.6132,-7.6161,-7.5853,-7.5853,-7.5853,0,0,-7.5152,-7.519,-7.5247,-7.5352,-7.539,-7.548,-7.5389,-7.5488,-7.5554,-7.5492,-7.5617,-7.5638,-7.5691,-7.5837,-7.5903,-7.5859,-7.6133,-7.6047,-7.6061,-7.6068,-7.6149,-7.6178,-7.6204,-7.5863,-7.5861,-7.5859,0,0,-7.5345,-7.5384,-7.55,-7.5541,-7.5601,-7.5607,-7.5635,-7.5684,-7.5697,-7.5823,-7.5778,-7.5854,-7.5991,-7.6031,-7.6069,-7.6278,-7.6238,-7.6302,-7.6414,-7.6498,-7.6522,-7.6544,-7.6618,-7.6644,-7.6318,-7.6319,-7.6319,0,-7.5437,-7.5573,-7.5563,-7.5666,-7.5713,-7.5664,-7.578,-7.5819,-7.5899,-7.5931,-7.5882,-7.6053,-7.6085,-7.624,-7.6291,-7.6324,-7.6353,-7.6296,-7.652,-7.6542,-7.6561,-7.6631,-7.6659,-7.6326,-7.6325,-7.6324,-7.6324,0,-7.5683,-7.5778,-7.5864,-7.5947,-7.6003,-7.6112,-7.6116,-7.6174,-7.6157,-7.6168,-7.6296,-7.6333,-7.6414,-7.645,-7.6433,-7.6602,-7.6573,-7.6523,-7.6434,-7.6598,-7.6664,-7.669,-7.6337,-7.6334,-7.6332,-7.633,0,0,-7.5936,-7.6012,-7.6044,-7.608,-7.6143,-7.6215,-7.6321,-7.6403,-7.6453,-7.6509,-7.6597,-7.6714,-7.6668,-7.6711,-7.6698,-7.6772,-7.6935,-7.6712,-7.6713,-7.6752,-7.7122,-7.716,-7.7191,-7.6909,-7.6914,-7.6918,-7.7117,0,-7.6132,-7.6321,-7.6314,-7.6489,-7.6576,-7.6531,-7.6623,-7.6671,-7.6684,-7.6757,-7.677,-7.6854,-7.6787,-7.6813,-7.6884,-7.69,-7.7009,-7.6885,-7.6988,-7.6992,-7.6976,-7.7225,-7.7265,-7.7451,-7.7143,-7.7147,-7.7151,0,-7.6385,-7.6454,-7.6639,-7.6689,-7.6726,-7.6809,-7.6883,-7.6956,-7.7007,-7.7011,-7.7061,-7.7036,-7.7141,-7.7051,-7.7195,-7.7111,-7.7153,-7.7167,-7.7174,-7.7182,-7.7081,-7.724,-7.751,-7.7538,-7.7191,-7.7188,-7.7185,0,-7.6551,-7.6689,-7.6818,-7.685,-7.6913,-7.6972,-7.7,-7.7047,-7.7097,-7.7161,-7.7192,-7.7267,-7.7308,-7.7365,-7.736,-7.7295,-7.7506,-7.7415,-7.751,-7.751,-7.7556,-7.7553,-7.7836,-7.7584,-7.7584,-7.7583,-7.7582,0,-7.677,-7.6885,-7.6893,-7.6972,-7.7098,-7.7089,-7.7213,-7.7235,-7.7277,-7.7357,-7.7322,-7.7397,-7.7387,-7.7462,-7.7459,-7.7578,-7.7596,-7.7601,-7.7599,-7.7604,-7.7604,-7.763,-7.7617,-7.759,-7.7589,-7.7587,-7.7586,0,-7.6976,-7.6987,-7.7124,-7.7172,-7.7187,-7.7278,-7.7318,-7.7392,-7.7402,-7.7504,-7.7528,-7.7543,-7.763,-7.7632,-7.773,-7.7728,-7.7873,-7.7856,-7.7857,-7.7853,-7.7948,-7.7939,-7.8258,-7.8299,-7.8021,-7.8024,-7.8026,0,-7.7115,-7.7203,-7.7262,-7.7315,-7.7347,-7.7432,-7.7484,-7.7478,-7.7532,-7.7598,-7.7663,-7.7747,-7.7814,-7.7955,-7.7973,-7.8048,-7.8032,-7.8139,-7.8043,-7.8046,-7.8033,-7.8027,-7.8036,-7.8157,-7.816,-7.8163,-7.8165,0,-7.736,-7.7362,-7.7438,-7.7518,-7.7581,-7.7642,-7.7699,-7.7743,-7.7743,-7.7805,-7.7896,-7.7948,-7.805,-7.8133,-7.8206,-7.8231,-7.8198,-7.8195,-7.8221,-7.8227,-7.8224,-7.8226,-7.7907,-7.8188,-7.8185,-7.8184,-7.8182,-7.8181,-7.7536,-7.7612,-7.7666,-7.7753,-7.7796,-7.785,-7.7922,-7.7942,-7.8018,-7.8103,-7.8094,-7.8194,-7.8242,-7.8337,-7.8369,-7.8445,-7.8408,-7.8445,-7.8455,-7.8464,-7.8474,-7.8213,-7.8458,-7.8458,-7.8457,-7.8457,-7.8456,0,-7.7779,-7.7812,-7.7893,-7.7975,-7.8042,-7.8008,-7.8069,-7.8127,-7.8217,-7.8267,-7.8334,-7.8437,-7.8518,-7.8543,-7.8621,-7.8677,-7.8663,-7.8697,-7.8693,-7.8699,-7.8504,-7.8473,-7.8707,-7.8707,-7.8707,-7.8707,-7.8707,-7.8707,-7.7914,-7.804,-7.8048,-7.8194,-7.8225,-7.8326,-7.8363,-7.8412,-7.8452,-7.857,-7.8638,-7.8655,-7.8695,-7.8775,-7.8847,-7.8852,-7.8882,-7.8922,-7.8921,-7.8738,-7.8713,-7.8689,-7.866,-7.8929,-7.8929,-7.911,-7.9111,-7.9113]}]]